| time (UTC) | temp F | wind direction | speed MPH | gust MPH | rain 1hr in | rain 24hr in | rain mn in | humidity % | barometer mb |
| 20260904205803 | 92 | 0 | 0.0 | 0.0 | 0.00 | 0.01 | 0.01 | 64 | 1009.3 |
| 20260904205305 | 92 | 0 | 0.0 | 0.0 | 0.00 | 0.01 | 0.01 | 63 | 1009.3 |
| 20260904204803 | 93 | 0 | 0.0 | 0.0 | 0.00 | 0.01 | 0.01 | 64 | 1009.4 |
| 20260904204303 | 93 | 0 | 0.0 | 0.0 | 0.00 | 0.01 | 0.01 | 65 | 1009.4 |
| 20260904203803 | 93 | 0 | 0.0 | 0.0 | 0.00 | 0.01 | 0.01 | 65 | 1009.6 |
| 20260904203303 | 93 | 0 | 0.0 | 0.0 | 0.00 | 0.01 | 0.01 | 64 | 1009.5 |
| 20260904202803 | 93 | 0 | 0.0 | 0.0 | 0.00 | 0.01 | 0.01 | 63 | 1009.4 |
| 20260904202305 | 93 | 0 | 0.0 | 0.0 | 0.00 | 0.01 | 0.01 | 63 | 1009.4 |
| 20260904201803 | 93 | 0 | 0.0 | 0.0 | 0.00 | 0.01 | 0.01 | 63 | 1009.7 |
| 20260904201303 | 93 | 0 | 0.0 | 0.0 | 0.00 | 0.01 | 0.01 | 64 | 1009.8 |
| 20260904200803 | 92 | 0 | 0.0 | 0.0 | 0.00 | 0.01 | 0.01 | 65 | 1009.9 |
| 20260904200303 | 92 | 0 | 0.0 | 0.0 | 0.00 | 0.01 | 0.01 | 64 | 1010.0 |
| 20260904195803 | 91 | 0 | 0.0 | 0.0 | 0.00 | 0.01 | 0.01 | 64 | 1010.1 |
| 20260904195305 | 91 | 0 | 0.0 | 0.0 | 0.00 | 0.01 | 0.01 | 65 | 1010.2 |
| 20260904194803 | 90 | 0 | 0.0 | 0.0 | 0.00 | 0.01 | 0.01 | 65 | 1010.2 |
| 20260904194303 | 90 | 0 | 0.0 | 0.0 | 0.00 | 0.01 | 0.01 | 66 | 1010.4 |
| 20260904193803 | 90 | 0 | 0.0 | 0.0 | 0.00 | 0.01 | 0.01 | 66 | 1010.5 |
| 20260904193303 | 89 | 0 | 0.0 | 0.0 | 0.00 | 0.01 | 0.01 | 67 | 1010.4 |
| 20260904192803 | 89 | 0 | 0.0 | 0.0 | 0.00 | 0.01 | 0.01 | 70 | 1010.5 |
| 20260904192306 | 88 | 0 | 0.0 | 0.0 | 0.00 | 0.01 | 0.01 | 70 | 1010.5 |
| 20260904191803 | 88 | 0 | 0.0 | 0.0 | 0.00 | 0.01 | 0.01 | 69 | 1010.6 |
| 20260904191303 | 87 | 0 | 0.0 | 0.0 | 0.00 | 0.01 | 0.01 | 72 | 1010.7 |
| 20260904190803 | 87 | 0 | 0.0 | 0.0 | 0.00 | 0.01 | 0.01 | 72 | 1010.9 |
| 20260904190303 | 86 | 0 | 0.0 | 0.0 | 0.00 | 0.01 | 0.01 | 71 | 1011.1 |
| 20260904185803 | 85 | 0 | 0.0 | 0.0 | 0.00 | 0.01 | 0.01 | 72 | 1011.2 |
| 20260904185306 | 85 | 0 | 0.0 | 0.0 | 0.00 | 0.01 | 0.01 | 77 | 1011.5 |
| 20260904184803 | 84 | 0 | 0.0 | 0.0 | 0.00 | 0.01 | 0.01 | 77 | 1011.5 |
| 20260904184303 | 84 | 0 | 0.0 | 0.0 | 0.00 | 0.01 | 0.01 | 77 | 1011.6 |
| 20260904183803 | 83 | 0 | 0.0 | 0.0 | 0.00 | 0.01 | 0.01 | 78 | 1011.6 |
| 20260904183303 | 83 | 0 | 0.0 | 0.0 | 0.00 | 0.01 | 0.01 | 78 | 1011.6 |
| 20260904182803 | 82 | 0 | 0.0 | 0.0 | 0.00 | 0.01 | 0.01 | 81 | 1011.5 |
| 20260904182306 | 81 | 0 | 0.0 | 0.0 | 0.00 | 0.01 | 0.01 | 85 | 1011.4 |
| 20260904181803 | 80 | 0 | 0.0 | 0.0 | 0.01 | 0.01 | 0.01 | 85 | 1011.4 |
| 20260904181303 | 80 | 0 | 0.0 | 0.0 | 0.01 | 0.01 | 0.01 | 85 | 1011.4 |
| 20260904180803 | 79 | 0 | 0.0 | 0.0 | 0.01 | 0.01 | 0.01 | 89 | 1011.6 |
| 20260904180303 | 78 | 0 | 0.0 | 0.0 | 0.01 | 0.01 | 0.01 | 90 | 1011.7 |
| 20260904175803 | 78 | 0 | 0.0 | 0.0 | 0.01 | 0.01 | 0.01 | 90 | 1011.9 |
| 20260904175305 | 78 | 0 | 0.0 | 0.0 | 0.01 | 0.01 | 0.01 | 91 | 1012.1 |
| 20260904174803 | 78 | 0 | 0.0 | 0.0 | 0.01 | 0.01 | 0.01 | 91 | 1012.4 |
| 20260904174303 | 78 | 0 | 0.0 | 0.0 | 0.01 | 0.01 | 0.01 | 90 | 1012.6 |
| 20260904173803 | 78 | 0 | 0.0 | 0.0 | 0.01 | 0.01 | 0.01 | 90 | 1012.7 |
| 20260904173303 | 79 | 0 | 0.0 | 0.0 | 0.01 | 0.01 | 0.01 | 90 | 1012.8 |
| 20260904172803 | 79 | 0 | 0.0 | 0.0 | 0.01 | 0.01 | 0.01 | 90 | 1012.8 |
| 20260904172305 | 79 | 0 | 0.0 | 0.0 | 0.01 | 0.01 | 0.01 | 87 | 1013.5 |
| 20260904171803 | 79 | 0 | 0.0 | 0.0 | 0.00 | 0.00 | 0.00 | 86 | 1014.3 |
| 20260904171303 | 80 | 0 | 0.0 | 0.0 | 0.00 | 0.00 | 0.00 | 84 | 1014.6 |
| 20260904170803 | 80 | 0 | 0.0 | 0.0 | 0.00 | 0.00 | 0.00 | 84 | 1014.6 |
| 20260904170303 | 80 | 0 | 0.0 | 0.0 | 0.00 | 0.00 | 0.00 | 84 | 1014.1 |
| 20260904165803 | 80 | 0 | 0.0 | 0.0 | 0.00 | 0.00 | 0.00 | 85 | 1013.9 |
| 20260904165305 | 79 | 0 | 0.0 | 0.0 | 0.00 | 0.00 | 0.00 | 86 | 1013.7 |
| 20260904164803 | 79 | 0 | 0.0 | 0.0 | 0.00 | 0.00 | 0.00 | 86 | 1014.0 |
| 20260904164303 | 79 | 0 | 0.0 | 0.0 | 0.00 | 0.00 | 0.00 | 87 | 1014.1 |
| 20260904163803 | 79 | 0 | 0.0 | 0.0 | 0.00 | 0.00 | 0.00 | 87 | 1014.1 |
| 20260904163303 | 79 | 0 | 0.0 | 0.0 | 0.00 | 0.00 | 0.00 | 87 | 1014.2 |
| 20260904162803 | 79 | 0 | 0.0 | 0.0 | 0.00 | 0.00 | 0.00 | 86 | 1014.3 |
| 20260904162305 | 79 | 0 | 0.0 | 0.0 | 0.00 | 0.00 | 0.00 | 86 | 1014.5 |
| 20260904161803 | 79 | 0 | 0.0 | 0.0 | 0.00 | 0.02 | 0.00 | 85 | 1014.6 |
| 20260904161303 | 79 | 0 | 0.0 | 0.0 | 0.00 | 0.02 | 0.00 | 86 | 1014.7 |
| 20260904160803 | 78 | 0 | 0.0 | 0.0 | 0.00 | 0.02 | 0.00 | 87 | 1014.7 |
| 20260904160303 | 78 | 0 | 0.0 | 0.0 | 0.00 | 0.02 | 0.00 | 88 | 1014.7 |
| 20260904155803 | 78 | 0 | 0.0 | 0.0 | 0.00 | 0.02 | 0.00 | 88 | 1015.0 |
| 20260904155306 | 77 | 0 | 0.0 | 0.0 | 0.00 | 0.02 | 0.00 | 88 | 1015.0 |
| 20260904154803 | 77 | 0 | 0.0 | 0.0 | 0.00 | 0.02 | 0.00 | 87 | 1015.0 |
| 20260904154303 | 78 | 0 | 0.0 | 0.0 | 0.00 | 0.02 | 0.00 | 87 | 1015.0 |
| 20260904153803 | 78 | 0 | 0.0 | 0.0 | 0.00 | 0.02 | 0.00 | 86 | 1015.0 |
| 20260904153303 | 78 | 0 | 0.0 | 0.0 | 0.00 | 0.02 | 0.00 | 86 | 1015.0 |
| 20260904152803 | 78 | 0 | 0.0 | 0.0 | 0.00 | 0.02 | 0.00 | 86 | 1014.8 |
| 20260904152306 | 79 | 0 | 0.0 | 0.0 | 0.00 | 0.02 | 0.00 | 85 | 1014.8 |
| 20260904151803 | 79 | 0 | 0.0 | 0.0 | 0.00 | 0.02 | 0.00 | 86 | 1014.9 |
| 20260904151303 | 79 | 0 | 0.0 | 0.0 | 0.00 | 0.02 | 0.00 | 86 | 1014.7 |
| 20260904150803 | 79 | 0 | 0.0 | 0.0 | 0.00 | 0.02 | 0.00 | 87 | 1014.4 |
| 20260904150303 | 79 | 0 | 0.0 | 0.0 | 0.00 | 0.02 | 0.00 | 87 | 1014.3 |
| 20260904145803 | 79 | 0 | 0.0 | 0.0 | 0.00 | 0.02 | 0.00 | 87 | 1014.0 |
| 20260904145305 | 79 | 0 | 0.0 | 0.0 | 0.00 | 0.02 | 0.00 | 88 | 1013.7 |
| 20260904144803 | 79 | 0 | 0.0 | 0.0 | 0.00 | 0.02 | 0.00 | 89 | 1013.4 |
| 20260904144303 | 78 | 0 | 0.0 | 0.0 | 0.00 | 0.02 | 0.00 | 88 | 1013.3 |
| 20260904143803 | 78 | 0 | 0.0 | 0.0 | 0.00 | 0.02 | 0.00 | 88 | 1013.3 |
| 20260904143303 | 79 | 0 | 0.0 | 0.0 | 0.00 | 0.02 | 0.00 | 88 | 1013.3 |
| 20260904142803 | 79 | 0 | 0.0 | 0.0 | 0.00 | 0.02 | 0.00 | 89 | 1013.3 |
| 20260904142306 | 78 | 0 | 0.0 | 0.0 | 0.00 | 0.02 | 0.00 | 90 | 1013.2 |
| 20260904141803 | 78 | 0 | 0.0 | 0.0 | 0.00 | 0.02 | 0.00 | 90 | 1013.1 |
| 20260904141303 | 78 | 0 | 0.0 | 0.0 | 0.00 | 0.02 | 0.00 | 91 | 1013.0 |
| 20260904140803 | 78 | 0 | 0.0 | 0.0 | 0.00 | 0.02 | 0.00 | 91 | 1013.2 |
| 20260904140303 | 78 | 0 | 0.0 | 0.0 | 0.00 | 0.02 | 0.00 | 92 | 1013.2 |
| 20260904135803 | 77 | 0 | 0.0 | 0.0 | 0.00 | 0.02 | 0.00 | 93 | 1013.2 |
| 20260904135306 | 77 | 0 | 0.0 | 0.0 | 0.00 | 0.02 | 0.00 | 93 | 1013.1 |
| 20260904134803 | 77 | 0 | 0.0 | 0.0 | 0.00 | 0.02 | 0.00 | 94 | 1013.1 |
| 20260904134303 | 77 | 0 | 0.0 | 0.0 | 0.00 | 0.02 | 0.00 | 95 | 1013.1 |
| 20260904133803 | 77 | 0 | 0.0 | 0.0 | 0.00 | 0.02 | 0.00 | 95 | 1013.1 |
| 20260904133303 | 77 | 0 | 0.0 | 0.0 | 0.00 | 0.02 | 0.00 | 96 | 1013.1 |
| 20260904132803 | 76 | 0 | 0.0 | 0.0 | 0.00 | 0.02 | 0.00 | 96 | 1013.1 |
| 20260904132306 | 76 | 0 | 0.0 | 0.0 | 0.00 | 0.02 | 0.00 | 97 | 1012.9 |
| 20260904131803 | 76 | 0 | 0.0 | 0.0 | 0.00 | 0.02 | 0.00 | 97 | 1012.9 |
| 20260904131303 | 76 | 0 | 0.0 | 0.0 | 0.00 | 0.02 | 0.00 | 97 | 1012.9 |
| 20260904130803 | 76 | 0 | 0.0 | 0.0 | 0.00 | 0.02 | 0.00 | 97 | 1012.8 |
| 20260904130303 | 75 | 0 | 0.0 | 0.0 | 0.00 | 0.02 | 0.00 | 97 | 1012.5 |
| 20260904125803 | 75 | 0 | 0.0 | 0.0 | 0.00 | 0.02 | 0.00 | 97 | 1012.3 |
| 20260904125305 | 75 | 0 | 0.0 | 0.0 | 0.00 | 0.02 | 0.00 | 97 | 1012.2 |
| 20260904124803 | 75 | 0 | 0.0 | 0.0 | 0.00 | 0.02 | 0.00 | 97 | 1012.2 |
| 20260904124303 | 75 | 0 | 0.0 | 0.0 | 0.00 | 0.02 | 0.00 | 97 | 1012.1 |
| 20260904123803 | 74 | 0 | 0.0 | 0.0 | 0.00 | 0.02 | 0.00 | 97 | 1012.0 |
| 20260904123303 | 74 | 0 | 0.0 | 0.0 | 0.00 | 0.02 | 0.00 | 97 | 1012.1 |
| 20260904122803 | 74 | 0 | 0.0 | 0.0 | 0.00 | 0.02 | 0.00 | 97 | 1012.1 |
| 20260904122306 | 74 | 0 | 0.0 | 0.0 | 0.00 | 0.02 | 0.00 | 97 | 1012.1 |
| 20260904121803 | 75 | 0 | 0.0 | 0.0 | 0.00 | 0.02 | 0.00 | 97 | 1012.0 |
| 20260904121303 | 75 | 0 | 0.0 | 0.0 | 0.00 | 0.02 | 0.00 | 97 | 1011.9 |
| 20260904120803 | 75 | 0 | 0.0 | 0.0 | 0.00 | 0.02 | 0.00 | 97 | 1011.7 |
| 20260904120303 | 75 | 0 | 0.0 | 0.0 | 0.00 | 0.02 | 0.00 | 97 | 1011.7 |
| 20260904115803 | 75 | 0 | 0.0 | 0.0 | 0.00 | 0.02 | 0.00 | 97 | 1011.6 |
| 20260904115306 | 75 | 0 | 0.0 | 0.0 | 0.00 | 0.02 | 0.00 | 98 | 1011.5 |
| 20260904114803 | 75 | 0 | 0.0 | 0.0 | 0.00 | 0.02 | 0.00 | 98 | 1011.5 |
| 20260904114303 | 75 | 0 | 0.0 | 0.0 | 0.00 | 0.02 | 0.00 | 98 | 1011.3 |
| 20260904113803 | 75 | 0 | 0.0 | 0.0 | 0.00 | 0.02 | 0.00 | 98 | 1011.3 |
| 20260904113303 | 75 | 0 | 0.0 | 0.0 | 0.00 | 0.02 | 0.00 | 98 | 1011.2 |
| 20260904112803 | 75 | 0 | 0.0 | 0.0 | 0.00 | 0.02 | 0.00 | 98 | 1011.1 |
| 20260904112305 | 75 | 0 | 0.0 | 0.0 | 0.00 | 0.02 | 0.00 | 98 | 1011.1 |
| 20260904111803 | 75 | 0 | 0.0 | 0.0 | 0.00 | 0.02 | 0.00 | 98 | 1011.0 |
| 20260904111303 | 75 | 0 | 0.0 | 0.0 | 0.00 | 0.02 | 0.00 | 98 | 1010.8 |
| 20260904110803 | 75 | 0 | 0.0 | 0.0 | 0.00 | 0.02 | 0.00 | 98 | 1010.4 |
| 20260904110303 | 75 | 0 | 0.0 | 0.0 | 0.00 | 0.02 | 0.00 | 98 | 1010.3 |
| 20260904105803 | 75 | 0 | 0.0 | 0.0 | 0.00 | 0.02 | 0.00 | 98 | 1010.2 |
| 20260904105305 | 75 | 0 | 0.0 | 0.0 | 0.00 | 0.02 | 0.00 | 98 | 1010.3 |
| 20260904104803 | 75 | 0 | 0.0 | 0.0 | 0.00 | 0.02 | 0.00 | 98 | 1010.1 |
| 20260904104303 | 75 | 0 | 0.0 | 0.0 | 0.00 | 0.02 | 0.00 | 98 | 1010.1 |
| 20260904103803 | 75 | 0 | 0.0 | 0.0 | 0.00 | 0.02 | 0.00 | 97 | 1010.1 |
| 20260904103303 | 75 | 0 | 0.0 | 0.0 | 0.00 | 0.02 | 0.00 | 97 | 1010.1 |
| 20260904102803 | 75 | 0 | 0.0 | 0.0 | 0.00 | 0.02 | 0.00 | 97 | 1010.1 |
| 20260904102306 | 75 | 0 | 0.0 | 0.0 | 0.00 | 0.02 | 0.00 | 97 | 1010.1 |
| 20260904101803 | 75 | 0 | 0.0 | 0.0 | 0.00 | 0.02 | 0.00 | 97 | 1010.0 |
| 20260904100803 | 75 | 0 | 0.0 | 0.0 | 0.00 | 0.02 | 0.00 | 98 | 1010.1 |
| 20260904100303 | 75 | 0 | 0.0 | 0.0 | 0.00 | 0.02 | 0.00 | 98 | 1010.0 |
| 20260904095803 | 75 | 0 | 0.0 | 0.0 | 0.00 | 0.02 | 0.00 | 98 | 1010.0 |
| 20260904095306 | 75 | 0 | 0.0 | 0.0 | 0.00 | 0.02 | 0.00 | 98 | 1010.0 |
| 20260904094803 | 75 | 0 | 0.0 | 0.0 | 0.00 | 0.02 | 0.00 | 98 | 1009.8 |
| 20260904094303 | 75 | 0 | 0.0 | 0.0 | 0.00 | 0.02 | 0.00 | 98 | 1009.8 |
| 20260904093803 | 75 | 0 | 0.0 | 0.0 | 0.00 | 0.02 | 0.00 | 98 | 1009.8 |
| 20260904093303 | 75 | 0 | 0.0 | 0.0 | 0.00 | 0.02 | 0.00 | 98 | 1009.8 |
| 20260904092803 | 75 | 0 | 0.0 | 0.0 | 0.00 | 0.02 | 0.00 | 98 | 1009.7 |
| 20260904092306 | 75 | 0 | 0.0 | 0.0 | 0.00 | 0.02 | 0.00 | 98 | 1009.9 |
| 20260904091803 | 75 | 0 | 0.0 | 0.0 | 0.00 | 0.02 | 0.00 | 98 | 1010.0 |
| 20260904091303 | 75 | 0 | 0.0 | 0.0 | 0.00 | 0.02 | 0.00 | 98 | 1009.9 |
| 20260904090803 | 75 | 0 | 0.0 | 0.0 | 0.00 | 0.02 | 0.00 | 98 | 1009.8 |
| 20260904090303 | 75 | 0 | 0.0 | 0.0 | 0.00 | 0.02 | 0.00 | 98 | 1009.8 |
| 20260904085803 | 75 | 0 | 0.0 | 0.0 | 0.00 | 0.02 | 0.00 | 98 | 1009.8 |
| 20260904085305 | 75 | 0 | 0.0 | 0.0 | 0.00 | 0.02 | 0.00 | 98 | 1009.7 |
| 20260904084803 | 75 | 0 | 0.0 | 0.0 | 0.00 | 0.02 | 0.00 | 97 | 1009.8 |
| 20260904084303 | 75 | 0 | 0.0 | 0.0 | 0.00 | 0.02 | 0.00 | 98 | 1009.9 |
| 20260904083803 | 75 | 0 | 0.0 | 0.0 | 0.00 | 0.02 | 0.00 | 97 | 1010.0 |
| 20260904083303 | 75 | 0 | 0.0 | 0.0 | 0.00 | 0.02 | 0.00 | 98 | 1010.2 |
| 20260904082803 | 75 | 0 | 0.0 | 0.0 | 0.00 | 0.02 | 0.00 | 98 | 1010.3 |
| 20260904082305 | 75 | 0 | 0.0 | 0.0 | 0.00 | 0.02 | 0.00 | 98 | 1010.6 |
| 20260904081803 | 75 | 0 | 0.0 | 0.0 | 0.00 | 0.02 | 0.00 | 97 | 1010.7 |
| 20260904081303 | 75 | 0 | 0.0 | 0.0 | 0.00 | 0.02 | 0.00 | 97 | 1010.7 |
| 20260904080803 | 75 | 0 | 0.0 | 0.0 | 0.00 | 0.02 | 0.00 | 97 | 1010.6 |
| 20260904080303 | 75 | 0 | 0.0 | 0.0 | 0.00 | 0.02 | 0.00 | 97 | 1010.6 |
| 20260904075803 | 75 | 0 | 0.0 | 0.0 | 0.00 | 0.02 | 0.00 | 97 | 1010.6 |
| 20260904075306 | 75 | 0 | 0.0 | 0.0 | 0.00 | 0.02 | 0.00 | 97 | 1010.5 |
| 20260904074803 | 75 | 0 | 0.0 | 0.0 | 0.00 | 0.02 | 0.00 | 97 | 1010.3 |
| 20260904074303 | 75 | 0 | 0.0 | 0.0 | 0.00 | 0.02 | 0.00 | 97 | 1010.3 |
| 20260904073803 | 75 | 0 | 0.0 | 0.0 | 0.00 | 0.02 | 0.00 | 97 | 1010.3 |
| 20260904073303 | 75 | 0 | 0.0 | 0.0 | 0.00 | 0.02 | 0.00 | 97 | 1010.1 |
| 20260904072803 | 75 | 0 | 0.0 | 0.0 | 0.00 | 0.02 | 0.00 | 97 | 1010.3 |
| 20260904072305 | 75 | 0 | 0.0 | 0.0 | 0.00 | 0.02 | 0.00 | 97 | 1010.3 |
| 20260904071803 | 75 | 0 | 0.0 | 0.0 | 0.00 | 0.02 | 0.00 | 97 | 1010.2 |
| 20260904071303 | 75 | 0 | 0.0 | 0.0 | 0.00 | 0.02 | 0.00 | 97 | 1010.2 |
| 20260904070803 | 75 | 0 | 0.0 | 0.0 | 0.00 | 0.02 | 0.00 | 97 | 1010.1 |
| 20260904070303 | 75 | 0 | 0.0 | 0.0 | 0.00 | 0.02 | 0.00 | 97 | 1010.1 |
| 20260904065803 | 75 | 0 | 0.0 | 0.0 | 0.00 | 0.02 | 0.00 | 97 | 1010.1 |
| 20260904065306 | 75 | 0 | 0.0 | 0.0 | 0.00 | 0.02 | 0.00 | 97 | 1010.2 |
| 20260904064803 | 75 | 0 | 0.0 | 0.0 | 0.00 | 0.02 | 0.00 | 97 | 1010.3 |
| 20260904064303 | 74 | 0 | 0.0 | 0.0 | 0.00 | 0.02 | 0.00 | 97 | 1010.2 |
| 20260904063803 | 74 | 0 | 0.0 | 0.0 | 0.00 | 0.02 | 0.00 | 97 | 1010.2 |
| 20260904063303 | 74 | 0 | 0.0 | 0.0 | 0.00 | 0.02 | 0.00 | 97 | 1010.4 |
| 20260904062803 | 74 | 0 | 0.0 | 0.0 | 0.00 | 0.02 | 0.00 | 97 | 1010.5 |
| 20260904062306 | 74 | 0 | 0.0 | 0.0 | 0.00 | 0.02 | 0.00 | 96 | 1010.6 |
| 20260904061803 | 75 | 0 | 0.0 | 0.0 | 0.00 | 0.02 | 0.00 | 96 | 1010.7 |
| 20260904061303 | 75 | 0 | 0.0 | 0.0 | 0.00 | 0.02 | 0.00 | 96 | 1010.8 |
| 20260904060803 | 75 | 0 | 0.0 | 0.0 | 0.00 | 0.02 | 0.00 | 96 | 1010.9 |
| 20260904060303 | 75 | 0 | 0.0 | 0.0 | 0.00 | 0.02 | 0.00 | 96 | 1011.0 |
| 20260904055803 | 75 | 0 | 0.0 | 0.0 | 0.00 | 0.02 | 0.00 | 96 | 1011.1 |
| 20260904055306 | 75 | 0 | 0.0 | 0.0 | 0.00 | 0.02 | 0.00 | 96 | 1011.2 |
| 20260904054803 | 75 | 0 | 0.0 | 0.0 | 0.00 | 0.02 | 0.00 | 96 | 1011.3 |
| 20260904054303 | 75 | 0 | 0.0 | 0.0 | 0.00 | 0.02 | 0.00 | 96 | 1011.3 |
| 20260904053803 | 75 | 0 | 0.0 | 0.0 | 0.00 | 0.02 | 0.00 | 96 | 1011.6 |
| 20260904053303 | 75 | 0 | 0.0 | 0.0 | 0.00 | 0.02 | 0.00 | 96 | 1011.7 |
| 20260904052803 | 75 | 0 | 0.0 | 0.0 | 0.00 | 0.02 | 0.00 | 96 | 1011.7 |
| 20260904052306 | 75 | 0 | 0.0 | 0.0 | 0.00 | 0.02 | 0.00 | 96 | 1011.5 |
| 20260904051803 | 75 | 0 | 0.0 | 0.0 | 0.00 | 0.02 | 0.00 | 96 | 1011.5 |
| 20260904051303 | 75 | 0 | 0.0 | 0.0 | 0.00 | 0.02 | 0.00 | 96 | 1011.4 |
| 20260904050803 | 75 | 0 | 0.0 | 0.0 | 0.00 | 0.02 | 0.00 | 96 | 1011.4 |
| 20260904050303 | 75 | 0 | 0.0 | 0.0 | 0.00 | 0.02 | 0.00 | 96 | 1011.2 |
| 20260904045803 | 75 | 0 | 0.0 | 0.0 | 0.00 | 0.02 | 0.00 | 96 | 1011.2 |
| 20260904045306 | 75 | 0 | 0.0 | 0.0 | 0.00 | 0.02 | 0.00 | 96 | 1011.2 |
| 20260904044803 | 75 | 0 | 0.0 | 0.0 | 0.00 | 0.02 | 0.00 | 95 | 1011.2 |
| 20260904044303 | 75 | 0 | 0.0 | 0.0 | 0.00 | 0.02 | 0.00 | 95 | 1011.2 |
| 20260904043803 | 75 | 0 | 0.0 | 0.0 | 0.00 | 0.02 | 0.00 | 95 | 1011.2 |
| 20260904043303 | 75 | 0 | 0.0 | 0.0 | 0.00 | 0.02 | 0.00 | 95 | 1011.2 |
| 20260904042803 | 75 | 0 | 0.0 | 0.0 | 0.00 | 0.02 | 0.00 | 95 | 1011.3 |
| 20260904042306 | 76 | 0 | 0.0 | 0.0 | 0.00 | 0.02 | 0.00 | 95 | 1011.3 |
| 20260904041803 | 75 | 0 | 0.0 | 0.0 | 0.00 | 0.02 | 0.00 | 95 | 1011.3 |
| 20260904041303 | 76 | 0 | 0.0 | 0.0 | 0.00 | 0.02 | 0.00 | 95 | 1011.3 |
| 20260904040803 | 76 | 0 | 0.0 | 0.0 | 0.00 | 0.02 | 0.00 | 95 | 1011.4 |
| 20260904040303 | 76 | 0 | 0.0 | 0.0 | 0.00 | 0.02 | 0.00 | 95 | 1011.4 |
| 20260904035803 | 76 | 0 | 0.0 | 0.0 | 0.00 | 0.02 | 0.00 | 95 | 1011.4 |
| 20260904035305 | 76 | 0 | 0.0 | 0.0 | 0.00 | 0.02 | 0.00 | 95 | 1011.4 |
| 20260904034803 | 76 | 0 | 0.0 | 0.0 | 0.00 | 0.02 | 0.00 | 95 | 1011.4 |
| 20260904034303 | 76 | 0 | 0.0 | 0.0 | 0.00 | 0.02 | 0.00 | 95 | 1011.4 |
| 20260904033803 | 76 | 0 | 0.0 | 0.0 | 0.00 | 0.02 | 0.00 | 94 | 1011.6 |
| 20260904033303 | 76 | 0 | 0.0 | 0.0 | 0.00 | 0.02 | 0.00 | 94 | 1011.6 |
| 20260904032803 | 76 | 0 | 0.0 | 0.0 | 0.00 | 0.02 | 0.00 | 94 | 1011.6 |
| 20260904032305 | 76 | 0 | 0.0 | 0.0 | 0.00 | 0.02 | 0.00 | 94 | 1011.7 |
| 20260904031803 | 76 | 0 | 0.0 | 0.0 | 0.00 | 0.02 | 0.00 | 94 | 1011.7 |
| 20260904031303 | 76 | 0 | 0.0 | 0.0 | 0.00 | 0.02 | 0.00 | 94 | 1011.8 |
| 20260904030803 | 76 | 0 | 0.0 | 0.0 | 0.00 | 0.02 | 0.00 | 94 | 1011.9 |
| 20260904030303 | 76 | 0 | 0.0 | 0.0 | 0.00 | 0.02 | 0.00 | 94 | 1011.8 |
| 20260904025803 | 76 | 0 | 0.0 | 0.0 | 0.00 | 0.02 | 0.00 | 93 | 1011.7 |
| 20260904025306 | 76 | 0 | 0.0 | 0.0 | 0.00 | 0.02 | 0.00 | 93 | 1011.7 |
| 20260904024803 | 76 | 0 | 0.0 | 0.0 | 0.00 | 0.02 | 0.00 | 93 | 1011.8 |
| 20260904024303 | 76 | 0 | 0.0 | 0.0 | 0.00 | 0.02 | 0.00 | 93 | 1011.9 |
| 20260904023803 | 76 | 0 | 0.0 | 0.0 | 0.00 | 0.02 | 0.00 | 92 | 1011.9 |
| 20260904023303 | 76 | 0 | 0.0 | 0.0 | 0.00 | 0.02 | 0.00 | 92 | 1011.9 |
| 20260904022803 | 76 | 0 | 0.0 | 0.0 | 0.00 | 0.02 | 0.00 | 92 | 1011.8 |
| 20260904022305 | 76 | 0 | 0.0 | 0.0 | 0.00 | 0.02 | 0.00 | 92 | 1011.8 |
| 20260904021803 | 77 | 0 | 0.0 | 0.0 | 0.00 | 0.02 | 0.02 | 92 | 1011.6 |
| 20260904021303 | 77 | 0 | 0.0 | 0.0 | 0.00 | 0.02 | 0.02 | 92 | 1011.5 |
| 20260904020803 | 77 | 0 | 0.0 | 0.0 | 0.00 | 0.02 | 0.02 | 91 | 1011.4 |
| 20260904020303 | 77 | 0 | 0.0 | 0.0 | 0.00 | 0.02 | 0.02 | 91 | 1011.3 |
| 20260904015803 | 77 | 0 | 0.0 | 0.0 | 0.00 | 0.02 | 0.02 | 91 | 1011.3 |
| 20260904015306 | 77 | 0 | 0.0 | 0.0 | 0.00 | 0.02 | 0.02 | 91 | 1011.3 |
| 20260904014803 | 77 | 0 | 0.0 | 0.0 | 0.00 | 0.02 | 0.02 | 90 | 1011.3 |
| 20260904014303 | 77 | 0 | 0.0 | 0.0 | 0.00 | 0.02 | 0.02 | 90 | 1011.3 |
| 20260904013803 | 77 | 0 | 0.0 | 0.0 | 0.00 | 0.02 | 0.02 | 89 | 1011.3 |
| 20260904013303 | 77 | 0 | 0.0 | 0.0 | 0.00 | 0.02 | 0.02 | 89 | 1011.2 |
| 20260904012803 | 77 | 0 | 0.0 | 0.0 | 0.00 | 0.02 | 0.02 | 89 | 1011.1 |
| 20260904012306 | 77 | 0 | 0.0 | 0.0 | 0.00 | 0.02 | 0.02 | 88 | 1011.0 |
| 20260904011803 | 77 | 0 | 0.0 | 0.0 | 0.00 | 0.02 | 0.02 | 88 | 1011.0 |
| 20260904011303 | 77 | 0 | 0.0 | 0.0 | 0.00 | 0.02 | 0.02 | 87 | 1010.9 |
| 20260904010803 | 78 | 0 | 0.0 | 0.0 | 0.00 | 0.02 | 0.02 | 86 | 1010.8 |
| 20260904010303 | 78 | 0 | 0.0 | 0.0 | 0.00 | 0.02 | 0.02 | 86 | 1010.7 |
| 20260904005803 | 78 | 0 | 0.0 | 0.0 | 0.00 | 0.02 | 0.02 | 85 | 1010.5 |
| 20260904005306 | 78 | 0 | 0.0 | 0.0 | 0.00 | 0.02 | 0.02 | 85 | 1010.3 |
| 20260904004803 | 78 | 0 | 0.0 | 0.0 | 0.00 | 0.02 | 0.02 | 85 | 1010.2 |
| 20260904004303 | 79 | 0 | 0.0 | 0.0 | 0.00 | 0.02 | 0.02 | 85 | 1010.2 |
| 20260904003803 | 79 | 0 | 0.0 | 0.0 | 0.00 | 0.02 | 0.02 | 85 | 1010.1 |
| 20260904003303 | 79 | 0 | 0.0 | 0.0 | 0.00 | 0.02 | 0.02 | 85 | 1010.1 |
| 20260904002803 | 79 | 0 | 0.0 | 0.0 | 0.00 | 0.02 | 0.02 | 85 | 1010.1 |
| 20260904002306 | 79 | 0 | 0.0 | 0.0 | 0.00 | 0.02 | 0.02 | 85 | 1010.0 |
| 20260904001803 | 79 | 0 | 0.0 | 0.0 | 0.00 | 0.02 | 0.02 | 84 | 1010.0 |
| 20260904001303 | 79 | 0 | 0.0 | 0.0 | 0.00 | 0.02 | 0.02 | 84 | 1010.0 |
| 20260904000803 | 79 | 0 | 0.0 | 0.0 | 0.00 | 0.02 | 0.02 | 84 | 1010.0 |
| 20260904000303 | 80 | 0 | 0.0 | 0.0 | 0.00 | 0.02 | 0.02 | 84 | 1010.1 |
| 20260903235803 | 80 | 0 | 0.0 | 0.0 | 0.00 | 0.02 | 0.02 | 84 | 1010.2 |
| 20260903235305 | 80 | 0 | 0.0 | 0.0 | 0.00 | 0.02 | 0.02 | 83 | 1010.1 |
| 20260903234803 | 80 | 0 | 0.0 | 0.0 | 0.00 | 0.02 | 0.02 | 83 | 1010.1 |
| 20260903234303 | 80 | 0 | 0.0 | 0.0 | 0.00 | 0.02 | 0.02 | 83 | 1010.1 |
| 20260903233803 | 80 | 0 | 0.0 | 0.0 | 0.00 | 0.02 | 0.02 | 83 | 1010.1 |
| 20260903233303 | 80 | 0 | 0.0 | 0.0 | 0.00 | 0.02 | 0.02 | 83 | 1010.1 |
| 20260903232803 | 80 | 0 | 0.0 | 0.0 | 0.00 | 0.02 | 0.02 | 83 | 1010.1 |
| 20260903232306 | 80 | 0 | 0.0 | 0.0 | 0.00 | 0.02 | 0.02 | 82 | 1010.1 |
| 20260903231803 | 80 | 0 | 0.0 | 0.0 | 0.00 | 0.02 | 0.02 | 82 | 1010.1 |
| 20260903231303 | 80 | 0 | 0.0 | 0.0 | 0.00 | 0.02 | 0.02 | 82 | 1010.2 |
| 20260903230803 | 80 | 0 | 0.0 | 0.0 | 0.00 | 0.02 | 0.02 | 82 | 1010.3 |
| 20260903230303 | 81 | 0 | 0.0 | 0.0 | 0.00 | 0.02 | 0.02 | 81 | 1010.2 |
| 20260903225803 | 81 | 0 | 0.0 | 0.0 | 0.00 | 0.02 | 0.02 | 81 | 1010.2 |
| 20260903225306 | 81 | 0 | 0.0 | 0.0 | 0.00 | 0.02 | 0.02 | 81 | 1010.3 |
| 20260903224803 | 81 | 0 | 0.0 | 0.0 | 0.00 | 0.02 | 0.02 | 81 | 1010.3 |
| 20260903224303 | 81 | 0 | 0.0 | 0.0 | 0.00 | 0.02 | 0.02 | 81 | 1010.5 |
| 20260903223803 | 81 | 0 | 0.0 | 0.0 | 0.00 | 0.02 | 0.02 | 81 | 1010.5 |
| 20260903223303 | 81 | 0 | 0.0 | 0.0 | 0.00 | 0.02 | 0.02 | 80 | 1010.6 |
| 20260903222803 | 81 | 0 | 0.0 | 0.0 | 0.00 | 0.02 | 0.02 | 80 | 1010.6 |
| 20260903222305 | 81 | 0 | 0.0 | 0.0 | 0.00 | 0.02 | 0.02 | 79 | 1010.6 |
| 20260903221803 | 82 | 0 | 0.0 | 0.0 | 0.00 | 0.02 | 0.02 | 79 | 1010.6 |
| 20260903221303 | 82 | 0 | 0.0 | 0.0 | 0.00 | 0.02 | 0.02 | 78 | 1010.7 |
| 20260903220803 | 82 | 0 | 0.0 | 0.0 | 0.00 | 0.02 | 0.02 | 78 | 1010.7 |
| 20260903220303 | 82 | 0 | 0.0 | 0.0 | 0.00 | 0.02 | 0.02 | 78 | 1010.8 |
| 20260903215803 | 82 | 0 | 0.0 | 0.0 | 0.00 | 0.02 | 0.02 | 78 | 1010.7 |
| 20260903215306 | 82 | 0 | 0.0 | 0.0 | 0.00 | 0.02 | 0.02 | 77 | 1010.7 |
| 20260903214803 | 82 | 0 | 0.0 | 0.0 | 0.00 | 0.02 | 0.02 | 77 | 1010.8 |
| 20260903214303 | 81 | 0 | 0.0 | 0.0 | 0.00 | 0.02 | 0.02 | 77 | 1010.8 |
| 20260903213803 | 81 | 0 | 0.0 | 0.0 | 0.00 | 0.02 | 0.02 | 76 | 1010.8 |
| 20260903213303 | 81 | 0 | 0.0 | 0.0 | 0.00 | 0.02 | 0.02 | 77 | 1010.8 |
| 20260903212803 | 81 | 0 | 0.0 | 0.0 | 0.00 | 0.02 | 0.02 | 76 | 1010.7 |
| 20260903212306 | 81 | 0 | 0.0 | 0.0 | 0.00 | 0.02 | 0.02 | 76 | 1010.8 |
| 20260903211803 | 81 | 0 | 0.0 | 0.0 | 0.00 | 0.02 | 0.02 | 76 | 1010.8 |
| 20260903211303 | 81 | 0 | 0.0 | 0.0 | 0.00 | 0.02 | 0.02 | 76 | 1010.7 |
| 20260903210803 | 81 | 0 | 0.0 | 0.0 | 0.00 | 0.02 | 0.02 | 76 | 1010.8 |
| 20260903210303 | 82 | 0 | 0.0 | 0.0 | 0.00 | 0.02 | 0.02 | 75 | 1010.8 |